owner,sensor,date,latitude,longitude,sea_water_turbidity,qcFlag 
NERRS,ioos:station:NOAA.NERRS:wkbfrwq:1,2016-01-01T03:45:00Z,30.4162,-87.8228,26.0,1111122 
NERRS,ioos:station:NOAA.NERRS:wkbfrwq:1,2016-01-01T04:45:00Z,30.4162,-87.8228,21.0,1111122 
NERRS,ioos:station:NOAA.NERRS:wkbfrwq:1,2016-01-01T05:45:00Z,30.4162,-87.8228,20.0,1111122 
NERRS,ioos:station:NOAA.NERRS:wkbfrwq:1,2016-01-01T06:45:00Z,30.4162,-87.8228,22.0,1111122 
NERRS,ioos:station:NOAA.NERRS:wkbfrwq:1,2016-01-01T07:45:00Z,30.4162,-87.8228,30.0,1111122 
NERRS,ioos:station:NOAA.NERRS:wkbfrwq:1,2016-01-01T08:45:00Z,30.4162,-87.8228,28.0,1111122 
NERRS,ioos:station:NOAA.NERRS:wkbfrwq:1,2016-01-01T09:45:00Z,30.4162,-87.8228,20.0,1111122 
NERRS,ioos:station:NOAA.NERRS:wkbfrwq:1,2016-01-01T10:45:00Z,30.4162,-87.8228,25.0,1111122 
NERRS,ioos:station:NOAA.NERRS:wkbfrwq:1,2016-01-01T11:45:00Z,30.4162,-87.8228,24.0,1111122 
NERRS,ioos:station:NOAA.NERRS:wkbfrwq:1,2016-01-01T12:45:00Z,30.4162,-87.8228,24.0,1111122 
NERRS,ioos:station:NOAA.NERRS:wkbfrwq:1,2016-01-01T13:45:00Z,30.4162,-87.8228,23.0,1111122 
NERRS,ioos:station:NOAA.NERRS:wkbfrwq:1,2016-01-01T14:45:00Z,30.4162,-87.8228,28.0,1111122 
NERRS,ioos:station:NOAA.NERRS:wkbfrwq:1,2016-01-01T15:45:00Z,30.4162,-87.8228,30.0,1111122 
NERRS,ioos:station:NOAA.NERRS:wkbfrwq:1,2016-01-01T16:45:00Z,30.4162,-87.8228,32.0,1111122 
NERRS,ioos:station:NOAA.NERRS:wkbfrwq:1,2016-01-01T17:45:00Z,30.4162,-87.8228,29.0,1111122 
NERRS,ioos:station:NOAA.NERRS:wkbfrwq:1,2016-01-02T20:45:00Z,30.4162,-87.8228,34.0,1111122 
NERRS,ioos:station:NOAA.NERRS:wkbfrwq:1,2016-01-02T21:45:00Z,30.4162,-87.8228,34.0,1111122 
NERRS,ioos:station:NOAA.NERRS:wkbfrwq:1,2016-01-02T22:45:00Z,30.4162,-87.8228,34.0,1111122 
NERRS,ioos:station:NOAA.NERRS:wkbfrwq:1,2016-01-02T23:45:00Z,30.4162,-87.8228,30.0,1111122 
NERRS,ioos:station:NOAA.NERRS:wkbfrwq:1,2016-01-03T01:45:00Z,30.4162,-87.8228,22.0,1111122 
NERRS,ioos:station:NOAA.NERRS:wkbfrwq:1,2016-01-03T02:45:00Z,30.4162,-87.8228,16.0,1111122 
NERRS,ioos:station:NOAA.NERRS:wkbfrwq:1,2016-01-03T03:45:00Z,30.4162,-87.8228,19.0,1111122 
NERRS,ioos:station:NOAA.NERRS:wkbfrwq:1,2016-01-03T04:45:00Z,30.4162,-87.8228,27.0,1111122 
NERRS,ioos:station:NOAA.NERRS:wkbfrwq:1,2016-01-03T05:45:00Z,30.4162,-87.8228,16.0,1111122 
NERRS,ioos:station:NOAA.NERRS:wkbfrwq:1,2016-01-03T06:45:00Z,30.4162,-87.8228,15.0,1111122 
NERRS,ioos:station:NOAA.NERRS:wkbfrwq:1,2016-01-03T07:45:00Z,30.4162,-87.8228,14.0,1111122 
NERRS,ioos:station:NOAA.NERRS:wkbfrwq:1,2016-01-03T08:45:00Z,30.4162,-87.8228,18.0,1111122 
NERRS,ioos:station:NOAA.NERRS:wkbfrwq:1,2016-01-03T09:45:00Z,30.4162,-87.8228,15.0,1111122 
NERRS,ioos:station:NOAA.NERRS:wkbfrwq:1,2016-01-03T10:45:00Z,30.4162,-87.8228,14.0,1111122 
NERRS,ioos:station:NOAA.NERRS:wkbfrwq:1,2016-01-03T11:45:00Z,30.4162,-87.8228,12.0,1111122 
NERRS,ioos:station:NOAA.NERRS:wkbfrwq:1,2016-01-03T12:45:00Z,30.4162,-87.8228,11.0,1111122 
NERRS,ioos:station:NOAA.NERRS:wkbfrwq:1,2016-01-03T13:45:00Z,30.4162,-87.8228,13.0,1111122 
NERRS,ioos:station:NOAA.NERRS:wkbfrwq:1,2016-01-03T14:45:00Z,30.4162,-87.8228,14.0,1111122 
NERRS,ioos:station:NOAA.NERRS:wkbfrwq:1,2016-01-03T15:45:00Z,30.4162,-87.8228,14.0,1111122 
NERRS,ioos:station:NOAA.NERRS:wkbfrwq:1,2016-01-03T16:45:00Z,30.4162,-87.8228,15.0,1111122 
NERRS,ioos:station:NOAA.NERRS:wkbfrwq:1,2016-01-03T17:45:00Z,30.4162,-87.8228,14.0,1111122 
NERRS,ioos:station:NOAA.NERRS:wkbfrwq:1,2016-01-03T18:45:00Z,30.4162,-87.8228,18.0,1111122 
NERRS,ioos:station:NOAA.NERRS:wkbfrwq:1,2016-01-03T20:45:00Z,30.4162,-87.8228,16.0,1111122 
NERRS,ioos:station:NOAA.NERRS:wkbfrwq:1,2016-01-03T21:45:00Z,30.4162,-87.8228,13.0,1111122 
NERRS,ioos:station:NOAA.NERRS:wkbfrwq:1,2016-01-03T22:45:00Z,30.4162,-87.8228,17.0,1111122 
NERRS,ioos:station:NOAA.NERRS:wkbfrwq:1,2016-01-04T00:45:00Z,30.4162,-87.8228,13.0,1111122 
NERRS,ioos:station:NOAA.NERRS:wkbfrwq:1,2016-01-04T01:45:00Z,30.4162,-87.8228,13.0,1111122 
NERRS,ioos:station:NOAA.NERRS:wkbfrwq:1,2016-01-04T02:45:00Z,30.4162,-87.8228,12.0,1111122 
NERRS,ioos:station:NOAA.NERRS:wkbfrwq:1,2016-01-04T03:45:00Z,30.4162,-87.8228,12.0,1111122 
NERRS,ioos:station:NOAA.NERRS:wkbfrwq:1,2016-01-04T04:45:00Z,30.4162,-87.8228,12.0,1111122 
NERRS,ioos:station:NOAA.NERRS:wkbfrwq:1,2016-01-04T05:45:00Z,30.4162,-87.8228,13.0,1111122 
NERRS,ioos:station:NOAA.NERRS:wkbfrwq:1,2016-01-04T06:45:00Z,30.4162,-87.8228,11.0,1111122 
NERRS,ioos:station:NOAA.NERRS:wkbfrwq:1,2016-01-04T08:45:00Z,30.4162,-87.8228,11.0,1111122 
NERRS,ioos:station:NOAA.NERRS:wkbfrwq:1,2016-01-04T09:45:00Z,30.4162,-87.8228,11.0,1111122 
NERRS,ioos:station:NOAA.NERRS:wkbfrwq:1,2016-01-04T10:45:00Z,30.4162,-87.8228,13.0,1111122 
NERRS,ioos:station:NOAA.NERRS:wkbfrwq:1,2016-01-04T11:45:00Z,30.4162,-87.8228,11.0,1111122 
NERRS,ioos:station:NOAA.NERRS:wkbfrwq:1,2016-01-04T15:45:00Z,30.4162,-87.8228,11.0,1111122 
NERRS,ioos:station:NOAA.NERRS:wkbfrwq:1,2016-01-04T19:45:00Z,30.4162,-87.8228,14.0,1111122 
NERRS,ioos:station:NOAA.NERRS:wkbfrwq:1,2016-01-04T20:45:00Z,30.4162,-87.8228,18.0,1111122 
NERRS,ioos:station:NOAA.NERRS:wkbfrwq:1,2016-01-04T21:45:00Z,30.4162,-87.8228,17.0,1111122 
NERRS,ioos:station:NOAA.NERRS:wkbfrwq:1,2016-01-04T22:45:00Z,30.4162,-87.8228,13.0,1111122 
NERRS,ioos:station:NOAA.NERRS:wkbfrwq:1,2016-01-05T02:45:00Z,30.4162,-87.8228,11.0,1111122 
NERRS,ioos:station:NOAA.NERRS:wkbfrwq:1,2016-01-05T03:45:00Z,30.4162,-87.8228,11.0,1111122 
NERRS,ioos:station:NOAA.NERRS:wkbfrwq:1,2016-01-06T06:45:00Z,30.4162,-87.8228,13.0,1111122 
NERRS,ioos:station:NOAA.NERRS:wkbfrwq:1,2016-01-06T16:45:00Z,30.4162,-87.8228,10.0,1111122 
NERRS,ioos:station:NOAA.NERRS:wkbfrwq:1,2016-01-06T19:45:00Z,30.4162,-87.8228,10.0,1111122 
NERRS,ioos:station:NOAA.NERRS:wkbfrwq:1,2016-01-06T20:45:00Z,30.4162,-87.8228,10.0,1111122 
NERRS,ioos:station:NOAA.NERRS:wkbfrwq:1,2016-01-06T21:45:00Z,30.4162,-87.8228,10.0,1111122 
NERRS,ioos:station:NOAA.NERRS:wkbfrwq:1,2016-01-06T23:45:00Z,30.4162,-87.8228,12.0,1111122 
NERRS,ioos:station:NOAA.NERRS:wkbfrwq:1,2016-01-07T00:45:00Z,30.4162,-87.8228,12.0,1111122 
NERRS,ioos:station:NOAA.NERRS:wkbfrwq:1,2016-01-07T10:45:00Z,30.4162,-87.8228,9.0,1111122 
NERRS,ioos:station:NOAA.NERRS:wkbfrwq:1,2016-01-07T11:45:00Z,30.4162,-87.8228,9.0,1111122 
NERRS,ioos:station:NOAA.NERRS:wkbfrwq:1,2016-01-07T12:45:00Z,30.4162,-87.8228,10.0,1111122 
NERRS,ioos:station:NOAA.NERRS:wkbfrwq:1,2016-01-07T14:45:00Z,30.4162,-87.8228,7.0,1111122 
NERRS,ioos:station:NOAA.NERRS:wkbfrwq:1,2016-01-07T15:45:00Z,30.4162,-87.8228,9.0,1111122 
NERRS,ioos:station:NOAA.NERRS:wkbfrwq:1,2016-01-07T22:45:00Z,30.4162,-87.8228,10.0,1111122 
NERRS,ioos:station:NOAA.NERRS:wkbfrwq:1,2016-01-07T23:45:00Z,30.4162,-87.8228,10.0,1111122 
NERRS,ioos:station:NOAA.NERRS:wkbfrwq:1,2016-01-08T00:45:00Z,30.4162,-87.8228,9.0,1111122 
NERRS,ioos:station:NOAA.NERRS:wkbfrwq:1,2016-01-08T06:45:00Z,30.4162,-87.8228,9.0,1111122 
NERRS,ioos:station:NOAA.NERRS:wkbfrwq:1,2016-01-08T12:45:00Z,30.4162,-87.8228,7.0,1111122 
NERRS,ioos:station:NOAA.NERRS:wkbfrwq:1,2016-01-08T13:45:00Z,30.4162,-87.8228,8.0,1111122 
NERRS,ioos:station:NOAA.NERRS:wkbfrwq:1,2016-01-08T20:45:00Z,30.4162,-87.8228,7.0,1111122 
NERRS,ioos:station:NOAA.NERRS:wkbfrwq:1,2016-01-08T21:45:00Z,30.4162,-87.8228,7.0,1111122 
NERRS,ioos:station:NOAA.NERRS:wkbfrwq:1,2016-01-08T22:45:00Z,30.4162,-87.8228,7.0,1111122 
NERRS,ioos:station:NOAA.NERRS:wkbfrwq:1,2016-01-08T23:45:00Z,30.4162,-87.8228,8.0,1111122 
NERRS,ioos:station:NOAA.NERRS:wkbfrwq:1,2016-01-09T00:45:00Z,30.4162,-87.8228,9.0,1111122 
NERRS,ioos:station:NOAA.NERRS:wkbfrwq:1,2016-01-09T06:45:00Z,30.4162,-87.8228,7.0,1111122 
NERRS,ioos:station:NOAA.NERRS:wkbfrwq:1,2016-01-09T14:45:00Z,30.4162,-87.8228,7.0,1111122 
NERRS,ioos:station:NOAA.NERRS:wkbfrwq:1,2016-01-09T15:45:00Z,30.4162,-87.8228,7.0,1111122 
NERRS,ioos:station:NOAA.NERRS:wkbfrwq:1,2016-01-09T18:45:00Z,30.4162,-87.8228,7.0,1111122 
NERRS,ioos:station:NOAA.NERRS:wkbfrwq:1,2016-01-09T19:45:00Z,30.4162,-87.8228,8.0,1111122 
NERRS,ioos:station:NOAA.NERRS:wkbfrwq:1,2016-01-09T20:45:00Z,30.4162,-87.8228,8.0,1111122 
NERRS,ioos:station:NOAA.NERRS:wkbfrwq:1,2016-01-09T21:45:00Z,30.4162,-87.8228,8.0,1111122 
NERRS,ioos:station:NOAA.NERRS:wkbfrwq:1,2016-01-09T22:45:00Z,30.4162,-87.8228,13.0,1111122 
NERRS,ioos:station:NOAA.NERRS:wkbfrwq:1,2016-01-09T23:45:00Z,30.4162,-87.8228,8.0,1111122 
NERRS,ioos:station:NOAA.NERRS:wkbfrwq:1,2016-01-10T00:45:00Z,30.4162,-87.8228,8.0,1111122 
NERRS,ioos:station:NOAA.NERRS:wkbfrwq:1,2016-01-10T01:45:00Z,30.4162,-87.8228,11.0,1111122 
NERRS,ioos:station:NOAA.NERRS:wkbfrwq:1,2016-01-10T02:45:00Z,30.4162,-87.8228,9.0,1111122 
NERRS,ioos:station:NOAA.NERRS:wkbfrwq:1,2016-01-10T03:45:00Z,30.4162,-87.8228,8.0,1111122 
NERRS,ioos:station:NOAA.NERRS:wkbfrwq:1,2016-01-10T04:45:00Z,30.4162,-87.8228,7.0,1111122 
NERRS,ioos:station:NOAA.NERRS:wkbfrwq:1,2016-01-10T05:45:00Z,30.4162,-87.8228,9.0,1111122 
NERRS,ioos:station:NOAA.NERRS:wkbfrwq:1,2016-01-10T06:45:00Z,30.4162,-87.8228,9.0,1111122 
NERRS,ioos:station:NOAA.NERRS:wkbfrwq:1,2016-01-10T07:45:00Z,30.4162,-87.8228,8.0,1111122 
NERRS,ioos:station:NOAA.NERRS:wkbfrwq:1,2016-01-10T08:45:00Z,30.4162,-87.8228,6.0,1111122 
NERRS,ioos:station:NOAA.NERRS:wkbfrwq:1,2016-01-10T09:45:00Z,30.4162,-87.8228,8.0,1111122 
NERRS,ioos:station:NOAA.NERRS:wkbfrwq:1,2016-01-10T10:45:00Z,30.4162,-87.8228,7.0,1111122 
NERRS,ioos:station:NOAA.NERRS:wkbfrwq:1,2016-01-10T11:45:00Z,30.4162,-87.8228,6.0,1111122 
NERRS,ioos:station:NOAA.NERRS:wkbfrwq:1,2016-01-10T12:45:00Z,30.4162,-87.8228,5.0,1111122 
NERRS,ioos:station:NOAA.NERRS:wkbfrwq:1,2016-01-10T13:45:00Z,30.4162,-87.8228,5.0,1111122 
NERRS,ioos:station:NOAA.NERRS:wkbfrwq:1,2016-01-10T14:45:00Z,30.4162,-87.8228,6.0,1111122 
NERRS,ioos:station:NOAA.NERRS:wkbfrwq:1,2016-01-10T15:45:00Z,30.4162,-87.8228,5.0,1111122 
NERRS,ioos:station:NOAA.NERRS:wkbfrwq:1,2016-01-10T16:45:00Z,30.4162,-87.8228,5.0,1111122 
NERRS,ioos:station:NOAA.NERRS:wkbfrwq:1,2016-01-10T17:45:00Z,30.4162,-87.8228,6.0,1111122 
NERRS,ioos:station:NOAA.NERRS:wkbfrwq:1,2016-01-10T18:45:00Z,30.4162,-87.8228,6.0,1111122 
NERRS,ioos:station:NOAA.NERRS:wkbfrwq:1,2016-01-10T20:45:00Z,30.4162,-87.8228,6.0,1111122 
NERRS,ioos:station:NOAA.NERRS:wkbfrwq:1,2016-01-10T21:45:00Z,30.4162,-87.8228,7.0,1111122 
NERRS,ioos:station:NOAA.NERRS:wkbfrwq:1,2016-01-10T23:45:00Z,30.4162,-87.8228,8.0,1111122 
NERRS,ioos:station:NOAA.NERRS:wkbfrwq:1,2016-01-11T00:45:00Z,30.4162,-87.8228,8.0,1111122 
NERRS,ioos:station:NOAA.NERRS:wkbfrwq:1,2016-01-11T02:45:00Z,30.4162,-87.8228,9.0,1111122 
NERRS,ioos:station:NOAA.NERRS:wkbfrwq:1,2016-01-11T18:45:00Z,30.4162,-87.8228,7.0,1111122 
NERRS,ioos:station:NOAA.NERRS:wkbfrwq:1,2016-01-11T19:45:00Z,30.4162,-87.8228,6.0,1111122 
NERRS,ioos:station:NOAA.NERRS:wkbfrwq:1,2016-01-11T20:45:00Z,30.4162,-87.8228,7.0,1111122 
NERRS,ioos:station:NOAA.NERRS:wkbfrwq:1,2016-01-12T04:45:00Z,30.4162,-87.8228,9.0,1111122 
NERRS,ioos:station:NOAA.NERRS:wkbfrwq:1,2016-01-12T05:45:00Z,30.4162,-87.8228,12.0,1111122 
NERRS,ioos:station:NOAA.NERRS:wkbfrwq:1,2016-01-12T10:45:00Z,30.4162,-87.8228,7.0,1111122 
NERRS,ioos:station:NOAA.NERRS:wkbfrwq:1,2016-01-12T11:45:00Z,30.4162,-87.8228,9.0,1111122 
NERRS,ioos:station:NOAA.NERRS:wkbfrwq:1,2016-01-12T12:45:00Z,30.4162,-87.8228,11.0,1111122 
NERRS,ioos:station:NOAA.NERRS:wkbfrwq:1,2016-01-12T13:45:00Z,30.4162,-87.8228,10.0,1111122 
NERRS,ioos:station:NOAA.NERRS:wkbfrwq:1,2016-01-12T20:45:00Z,30.4162,-87.8228,11.0,1111122 
NERRS,ioos:station:NOAA.NERRS:wkbfrwq:1,2016-01-12T22:45:00Z,30.4162,-87.8228,9.0,1111122 
NERRS,ioos:station:NOAA.NERRS:wkbfrwq:1,2016-01-13T19:45:00Z,30.4162,-87.8228,11.0,1111122 
NERRS,ioos:station:NOAA.NERRS:wkbfrwq:1,2016-01-13T20:45:00Z,30.4162,-87.8228,11.0,1111122 
NERRS,ioos:station:NOAA.NERRS:wkbfrwq:1,2016-01-13T21:45:00Z,30.4162,-87.8228,10.0,1111122 
NERRS,ioos:station:NOAA.NERRS:wkbfrwq:1,2016-01-13T22:45:00Z,30.4162,-87.8228,12.0,1111122 
NERRS,ioos:station:NOAA.NERRS:wkbfrwq:1,2016-01-14T12:45:00Z,30.4162,-87.8228,9.0,1111122 
NERRS,ioos:station:NOAA.NERRS:wkbfrwq:1,2016-01-14T13:45:00Z,30.4162,-87.8228,8.0,1111122 
NERRS,ioos:station:NOAA.NERRS:wkbfrwq:1,2016-01-14T14:45:00Z,30.4162,-87.8228,10.0,1111122 
NERRS,ioos:station:NOAA.NERRS:wkbfrwq:1,2016-01-14T16:45:00Z,30.4162,-87.8228,10.0,1111122 
NERRS,ioos:station:NOAA.NERRS:wkbfrwq:1,2016-01-14T17:45:00Z,30.4162,-87.8228,10.0,1111122 
NERRS,ioos:station:NOAA.NERRS:wkbfrwq:1,2016-01-14T18:45:00Z,30.4162,-87.8228,12.0,1111122 
NERRS,ioos:station:NOAA.NERRS:wkbfrwq:1,2016-01-14T19:45:00Z,30.4162,-87.8228,13.0,1111122 
NERRS,ioos:station:NOAA.NERRS:wkbfrwq:1,2016-01-14T20:45:00Z,30.4162,-87.8228,12.0,1111122 
NERRS,ioos:station:NOAA.NERRS:wkbfrwq:1,2016-01-14T21:45:00Z,30.4162,-87.8228,14.0,1111122 
NERRS,ioos:station:NOAA.NERRS:wkbfrwq:1,2016-01-14T22:45:00Z,30.4162,-87.8228,13.0,1111122 
NERRS,ioos:station:NOAA.NERRS:wkbfrwq:1,2016-01-14T23:45:00Z,30.4162,-87.8228,13.0,1111122 
NERRS,ioos:station:NOAA.NERRS:wkbfrwq:1,2016-01-15T00:45:00Z,30.4162,-87.8228,12.0,1111122 
NERRS,ioos:station:NOAA.NERRS:wkbfrwq:1,2016-01-15T01:45:00Z,30.4162,-87.8228,13.0,1111122 
NERRS,ioos:station:NOAA.NERRS:wkbfrwq:1,2016-01-15T02:45:00Z,30.4162,-87.8228,13.0,1111122 
NERRS,ioos:station:NOAA.NERRS:wkbfrwq:1,2016-01-15T03:45:00Z,30.4162,-87.8228,12.0,1111122 
NERRS,ioos:station:NOAA.NERRS:wkbfrwq:1,2016-01-15T06:45:00Z,30.4162,-87.8228,13.0,1111122 
NERRS,ioos:station:NOAA.NERRS:wkbfrwq:1,2016-01-15T07:45:00Z,30.4162,-87.8228,18.0,1111122 
NERRS,ioos:station:NOAA.NERRS:wkbfrwq:1,2016-01-15T09:45:00Z,30.4162,-87.8228,23.0,1111122 
NERRS,ioos:station:NOAA.NERRS:wkbfrwq:1,2016-01-15T14:45:00Z,30.4162,-87.8228,64.0,1111122 
NERRS,ioos:station:NOAA.NERRS:wkbfrwq:1,2016-01-15T17:45:00Z,30.4162,-87.8228,17.0,1111122 
NERRS,ioos:station:NOAA.NERRS:wkbfrwq:1,2016-01-15T18:45:00Z,30.4162,-87.8228,18.0,1111122 
NERRS,ioos:station:NOAA.NERRS:wkbfrwq:1,2016-01-15T19:45:00Z,30.4162,-87.8228,15.0,1111122 
NERRS,ioos:station:NOAA.NERRS:wkbfrwq:1,2016-01-15T20:45:00Z,30.4162,-87.8228,15.0,1111122 
NERRS,ioos:station:NOAA.NERRS:wkbfrwq:1,2016-01-15T21:45:00Z,30.4162,-87.8228,13.0,1111122 
NERRS,ioos:station:NOAA.NERRS:wkbfrwq:1,2016-01-15T22:45:00Z,30.4162,-87.8228,19.0,1111122 
NERRS,ioos:station:NOAA.NERRS:wkbfrwq:1,2016-01-15T23:45:00Z,30.4162,-87.8228,15.0,1111122 
NERRS,ioos:station:NOAA.NERRS:wkbfrwq:1,2016-01-16T00:45:00Z,30.4162,-87.8228,15.0,1111122 
NERRS,ioos:station:NOAA.NERRS:wkbfrwq:1,2016-01-16T01:45:00Z,30.4162,-87.8228,12.0,1111122 
NERRS,ioos:station:NOAA.NERRS:wkbfrwq:1,2016-01-16T02:45:00Z,30.4162,-87.8228,11.0,1111122 
NERRS,ioos:station:NOAA.NERRS:wkbfrwq:1,2016-01-16T03:45:00Z,30.4162,-87.8228,15.0,1111122 
NERRS,ioos:station:NOAA.NERRS:wkbfrwq:1,2016-01-16T04:45:00Z,30.4162,-87.8228,15.0,1111122 
NERRS,ioos:station:NOAA.NERRS:wkbfrwq:1,2016-01-16T05:45:00Z,30.4162,-87.8228,12.0,1111122 
NERRS,ioos:station:NOAA.NERRS:wkbfrwq:1,2016-01-16T06:45:00Z,30.4162,-87.8228,13.0,1111122 
NERRS,ioos:station:NOAA.NERRS:wkbfrwq:1,2016-01-16T07:45:00Z,30.4162,-87.8228,13.0,1111122 
NERRS,ioos:station:NOAA.NERRS:wkbfrwq:1,2016-01-16T08:45:00Z,30.4162,-87.8228,17.0,1111122 
NERRS,ioos:station:NOAA.NERRS:wkbfrwq:1,2016-01-16T12:45:00Z,30.4162,-87.8228,10.0,1111122 
NERRS,ioos:station:NOAA.NERRS:wkbfrwq:1,2016-01-16T14:45:00Z,30.4162,-87.8228,13.0,1111122 
NERRS,ioos:station:NOAA.NERRS:wkbfrwq:1,2016-01-16T19:45:00Z,30.4162,-87.8228,12.0,1111122 
NERRS,ioos:station:NOAA.NERRS:wkbfrwq:1,2016-01-16T20:45:00Z,30.4162,-87.8228,13.0,1111122 
NERRS,ioos:station:NOAA.NERRS:wkbfrwq:1,2016-01-16T21:45:00Z,30.4162,-87.8228,17.0,1111122 
NERRS,ioos:station:NOAA.NERRS:wkbfrwq:1,2016-01-16T22:45:00Z,30.4162,-87.8228,13.0,1111122 
NERRS,ioos:station:NOAA.NERRS:wkbfrwq:1,2016-01-16T23:45:00Z,30.4162,-87.8228,13.0,1111122 
NERRS,ioos:station:NOAA.NERRS:wkbfrwq:1,2016-01-17T01:45:00Z,30.4162,-87.8228,12.0,1111122 
NERRS,ioos:station:NOAA.NERRS:wkbfrwq:1,2016-01-17T02:45:00Z,30.4162,-87.8228,9.0,1111122 
NERRS,ioos:station:NOAA.NERRS:wkbfrwq:1,2016-01-17T03:45:00Z,30.4162,-87.8228,13.0,1111122 
NERRS,ioos:station:NOAA.NERRS:wkbfrwq:1,2016-01-17T04:45:00Z,30.4162,-87.8228,9.0,1111122 
NERRS,ioos:station:NOAA.NERRS:wkbfrwq:1,2016-01-17T07:45:00Z,30.4162,-87.8228,11.0,1111122 
NERRS,ioos:station:NOAA.NERRS:wkbfrwq:1,2016-01-17T09:45:00Z,30.4162,-87.8228,23.0,1111122 
NERRS,ioos:station:NOAA.NERRS:wkbfrwq:1,2016-01-17T13:45:00Z,30.4162,-87.8228,14.0,1111122 
NERRS,ioos:station:NOAA.NERRS:wkbfrwq:1,2016-01-17T16:45:00Z,30.4162,-87.8228,17.0,1111122 
NERRS,ioos:station:NOAA.NERRS:wkbfrwq:1,2016-01-17T18:45:00Z,30.4162,-87.8228,20.0,1111122 
NERRS,ioos:station:NOAA.NERRS:wkbfrwq:1,2016-01-17T21:45:00Z,30.4162,-87.8228,16.0,1111122 
NERRS,ioos:station:NOAA.NERRS:wkbfrwq:1,2016-01-17T22:45:00Z,30.4162,-87.8228,13.0,1111122 
NERRS,ioos:station:NOAA.NERRS:wkbfrwq:1,2016-01-17T23:45:00Z,30.4162,-87.8228,17.0,1111122 
NERRS,ioos:station:NOAA.NERRS:wkbfrwq:1,2016-01-18T02:45:00Z,30.4162,-87.8228,11.0,1111122 
NERRS,ioos:station:NOAA.NERRS:wkbfrwq:1,2016-01-18T03:45:00Z,30.4162,-87.8228,13.0,1111122 
NERRS,ioos:station:NOAA.NERRS:wkbfrwq:1,2016-01-18T04:45:00Z,30.4162,-87.8228,12.0,1111122 
NERRS,ioos:station:NOAA.NERRS:wkbfrwq:1,2016-01-18T15:45:00Z,30.4162,-87.8228,13.0,1111122 
NERRS,ioos:station:NOAA.NERRS:wkbfrwq:1,2016-01-18T16:45:00Z,30.4162,-87.8228,13.0,1111122 
NERRS,ioos:station:NOAA.NERRS:wkbfrwq:1,2016-01-18T17:45:00Z,30.4162,-87.8228,14.0,1111122 
NERRS,ioos:station:NOAA.NERRS:wkbfrwq:1,2016-01-19T03:45:00Z,30.4162,-87.8228,11.0,1111122 
NERRS,ioos:station:NOAA.NERRS:wkbfrwq:1,2016-01-19T12:45:00Z,30.4162,-87.8228,9.0,1111122 
NERRS,ioos:station:NOAA.NERRS:wkbfrwq:1,2016-01-19T13:45:00Z,30.4162,-87.8228,12.0,1111122 
NERRS,ioos:station:NOAA.NERRS:wkbfrwq:1,2016-01-19T18:45:00Z,30.4162,-87.8228,14.0,1111122 
NERRS,ioos:station:NOAA.NERRS:wkbfrwq:1,2016-01-19T21:45:00Z,30.4162,-87.8228,11.0,1111122 
NERRS,ioos:station:NOAA.NERRS:wkbfrwq:1,2016-01-19T22:45:00Z,30.4162,-87.8228,11.0,1111122 
NERRS,ioos:station:NOAA.NERRS:wkbfrwq:1,2016-01-20T05:45:00Z,30.4162,-87.8228,13.0,1111122 
NERRS,ioos:station:NOAA.NERRS:wkbfrwq:1,2016-01-20T16:45:00Z,30.4162,-87.8228,13.0,1111122 
NERRS,ioos:station:NOAA.NERRS:wkbfrwq:1,2016-01-20T19:45:00Z,30.4162,-87.8228,12.0,1111122 
NERRS,ioos:station:NOAA.NERRS:wkbfrwq:1,2016-01-20T22:45:00Z,30.4162,-87.8228,12.0,1111122 
NERRS,ioos:station:NOAA.NERRS:wkbfrwq:1,2016-01-21T01:45:00Z,30.4162,-87.8228,16.0,1111122 
NERRS,ioos:station:NOAA.NERRS:wkbfrwq:1,2016-01-21T03:45:00Z,30.4162,-87.8228,13.0,1111122 
NERRS,ioos:station:NOAA.NERRS:wkbfrwq:1,2016-01-21T04:45:00Z,30.4162,-87.8228,11.0,1111122 
NERRS,ioos:station:NOAA.NERRS:wkbfrwq:1,2016-01-21T05:45:00Z,30.4162,-87.8228,9.0,1111122 
NERRS,ioos:station:NOAA.NERRS:wkbfrwq:1,2016-01-21T07:45:00Z,30.4162,-87.8228,10.0,1111122 
NERRS,ioos:station:NOAA.NERRS:wkbfrwq:1,2016-01-21T08:45:00Z,30.4162,-87.8228,11.0,1111122 
NERRS,ioos:station:NOAA.NERRS:wkbfrwq:1,2016-01-21T16:45:00Z,30.4162,-87.8228,16.0,1111122 
NERRS,ioos:station:NOAA.NERRS:wkbfrwq:1,2016-01-21T18:45:00Z,30.4162,-87.8228,16.0,1111122 
NERRS,ioos:station:NOAA.NERRS:wkbfrwq:1,2016-01-21T20:45:00Z,30.4162,-87.8228,16.0,1111122 
NERRS,ioos:station:NOAA.NERRS:wkbfrwq:1,2016-01-21T21:45:00Z,30.4162,-87.8228,12.0,1111122 
NERRS,ioos:station:NOAA.NERRS:wkbfrwq:1,2016-01-21T22:45:00Z,30.4162,-87.8228,14.0,1111122 
NERRS,ioos:station:NOAA.NERRS:wkbfrwq:1,2016-01-21T23:45:00Z,30.4162,-87.8228,20.0,1111122 
NERRS,ioos:station:NOAA.NERRS:wkbfrwq:1,2016-01-22T00:45:00Z,30.4162,-87.8228,11.0,1111122 
NERRS,ioos:station:NOAA.NERRS:wkbfrwq:1,2016-01-22T04:45:00Z,30.4162,-87.8228,18.0,1111122 
NERRS,ioos:station:NOAA.NERRS:wkbfrwq:1,2016-01-22T05:45:00Z,30.4162,-87.8228,31.0,1111122 
NERRS,ioos:station:NOAA.NERRS:wkbfrwq:1,2016-01-22T11:45:00Z,30.4162,-87.8228,33.0,1111122 
NERRS,ioos:station:NOAA.NERRS:wkbfrwq:1,2016-01-22T12:45:00Z,30.4162,-87.8228,30.0,1111122 
NERRS,ioos:station:NOAA.NERRS:wkbfrwq:1,2016-01-22T13:45:00Z,30.4162,-87.8228,27.0,1111122 
NERRS,ioos:station:NOAA.NERRS:wkbfrwq:1,2016-01-22T18:45:00Z,30.4162,-87.8228,11.0,1111122 
NERRS,ioos:station:NOAA.NERRS:wkbfrwq:1,2016-01-22T19:45:00Z,30.4162,-87.8228,12.0,1111122 
NERRS,ioos:station:NOAA.NERRS:wkbfrwq:1,2016-01-22T20:45:00Z,30.4162,-87.8228,11.0,1111122 
NERRS,ioos:station:NOAA.NERRS:wkbfrwq:1,2016-01-22T22:45:00Z,30.4162,-87.8228,28.0,1111122 
NERRS,ioos:station:NOAA.NERRS:wkbfrwq:1,2016-01-22T23:45:00Z,30.4162,-87.8228,17.0,1111122 
NERRS,ioos:station:NOAA.NERRS:wkbfrwq:1,2016-01-23T04:45:00Z,30.4162,-87.8228,14.0,1111122 
NERRS,ioos:station:NOAA.NERRS:wkbfrwq:1,2016-01-23T05:45:00Z,30.4162,-87.8228,14.0,1111122 
NERRS,ioos:station:NOAA.NERRS:wkbfrwq:1,2016-01-23T07:45:00Z,30.4162,-87.8228,15.0,1111122 
NERRS,ioos:station:NOAA.NERRS:wkbfrwq:1,2016-01-23T13:45:00Z,30.4162,-87.8228,15.0,1111122 
NERRS,ioos:station:NOAA.NERRS:wkbfrwq:1,2016-01-23T14:45:00Z,30.4162,-87.8228,15.0,1111122 
NERRS,ioos:station:NOAA.NERRS:wkbfrwq:1,2016-01-23T18:45:00Z,30.4162,-87.8228,26.0,1111122 
NERRS,ioos:station:NOAA.NERRS:wkbfrwq:1,2016-01-24T04:45:00Z,30.4162,-87.8228,25.0,1111122 
NERRS,ioos:station:NOAA.NERRS:wkbfrwq:1,2016-01-24T05:45:00Z,30.4162,-87.8228,23.0,1111122 
NERRS,ioos:station:NOAA.NERRS:wkbfrwq:1,2016-01-24T06:45:00Z,30.4162,-87.8228,20.0,1111122 
NERRS,ioos:station:NOAA.NERRS:wkbfrwq:1,2016-01-24T13:45:00Z,30.4162,-87.8228,26.0,1111122 
NERRS,ioos:station:NOAA.NERRS:wkbfrwq:1,2016-01-24T14:45:00Z,30.4162,-87.8228,23.0,1111122 
NERRS,ioos:station:NOAA.NERRS:wkbfrwq:1,2016-01-24T15:45:00Z,30.4162,-87.8228,26.0,1111122 
NERRS,ioos:station:NOAA.NERRS:wkbfrwq:1,2016-01-24T16:45:00Z,30.4162,-87.8228,19.0,1111122 
NERRS,ioos:station:NOAA.NERRS:wkbfrwq:1,2016-01-24T21:45:00Z,30.4162,-87.8228,18.0,1111122 
NERRS,ioos:station:NOAA.NERRS:wkbfrwq:1,2016-01-24T22:45:00Z,30.4162,-87.8228,23.0,1111122 
NERRS,ioos:station:NOAA.NERRS:wkbfrwq:1,2016-01-25T00:45:00Z,30.4162,-87.8228,24.0,1111122 
NERRS,ioos:station:NOAA.NERRS:wkbfrwq:1,2016-01-25T01:45:00Z,30.4162,-87.8228,18.0,1111122 
NERRS,ioos:station:NOAA.NERRS:wkbfrwq:1,2016-01-26T13:45:00Z,30.4162,-87.8228,21.0,1111122 
NERRS,ioos:station:NOAA.NERRS:wkbfrwq:1,2016-01-26T15:45:00Z,30.4162,-87.8228,15.0,1111122 
NERRS,ioos:station:NOAA.NERRS:wkbfrwq:1,2016-01-26T16:45:00Z,30.4162,-87.8228,16.0,1111122 
NERRS,ioos:station:NOAA.NERRS:wkbfrwq:1,2016-01-26T17:45:00Z,30.4162,-87.8228,16.0,1111122 
NERRS,ioos:station:NOAA.NERRS:wkbfrwq:1,2016-01-26T18:45:00Z,30.4162,-87.8228,16.0,1111122 
NERRS,ioos:station:NOAA.NERRS:wkbfrwq:1,2016-01-26T19:45:00Z,30.4162,-87.8228,17.0,1111122 
NERRS,ioos:station:NOAA.NERRS:wkbfrwq:1,2016-01-26T20:45:00Z,30.4162,-87.8228,15.0,1111122 
NERRS,ioos:station:NOAA.NERRS:wkbfrwq:1,2016-01-26T21:45:00Z,30.4162,-87.8228,15.0,1111122 
NERRS,ioos:station:NOAA.NERRS:wkbfrwq:1,2016-01-26T22:45:00Z,30.4162,-87.8228,19.0,1111122 
NERRS,ioos:station:NOAA.NERRS:wkbfrwq:1,2016-01-26T23:45:00Z,30.4162,-87.8228,21.0,1111122 
NERRS,ioos:station:NOAA.NERRS:wkbfrwq:1,2016-01-27T00:45:00Z,30.4162,-87.8228,20.0,1111122 
NERRS,ioos:station:NOAA.NERRS:wkbfrwq:1,2016-01-27T01:45:00Z,30.4162,-87.8228,17.0,1111122 
NERRS,ioos:station:NOAA.NERRS:wkbfrwq:1,2016-01-27T04:45:00Z,30.4162,-87.8228,25.0,1111122 
NERRS,ioos:station:NOAA.NERRS:wkbfrwq:1,2016-01-27T05:45:00Z,30.4162,-87.8228,21.0,1111122 
NERRS,ioos:station:NOAA.NERRS:wkbfrwq:1,2016-01-27T06:45:00Z,30.4162,-87.8228,21.0,1111122 
NERRS,ioos:station:NOAA.NERRS:wkbfrwq:1,2016-01-27T07:45:00Z,30.4162,-87.8228,21.0,1111122 
NERRS,ioos:station:NOAA.NERRS:wkbfrwq:1,2016-01-27T09:45:00Z,30.4162,-87.8228,25.0,1111122 
NERRS,ioos:station:NOAA.NERRS:wkbfrwq:1,2016-01-27T10:45:00Z,30.4162,-87.8228,24.0,1111122 
NERRS,ioos:station:NOAA.NERRS:wkbfrwq:1,2016-01-27T11:45:00Z,30.4162,-87.8228,22.0,1111122 
NERRS,ioos:station:NOAA.NERRS:wkbfrwq:1,2016-01-27T12:45:00Z,30.4162,-87.8228,22.0,1111122 
NERRS,ioos:station:NOAA.NERRS:wkbfrwq:1,2016-01-27T13:45:00Z,30.4162,-87.8228,21.0,1111122 